Content
SEND FEEDBACK

Daily
Averages
Monthly
Summary
United States of America

CALDWELL, KANSAS


Home > North America > United States > Kansas
Elevation: 1140 feet     Latitude: 37 02N     Longitude: 097 37W

WEATHER
 
SELECT A DAY
Number of Records: 122,530;   Date Range: 3/17/09 - 8/21/14
 
SHARE

PRINT THIS DATA

[ ← Previous Day ]
WEATHER ALMANAC - FEBRUARY 13, 2013
[ Next Day → ]
[ °C ]   °F
Weather ElementAverageHighLow
Temperature33.5 °F48.2 °F (3:55 pm)23 °F (6:35 am)
Dewpoint29.6 °F35.6 °F (3:35 pm)23 °F (6:35 am)
Humidity87.4 %100 % (12:35 am)54 % (4:55 pm)
Barometer29.98 in30.04 in (12:35 am)29.93 in (5:15 pm)
Wind Speed9.8 mph15 mph (4:15 pm)
Weather ElementAverage
Visibility8.5 mi
Wind DirectionWSW (234.6 °)

Weather ElementTotal
Precipitation0.13 in
Heating Degree Days29.4 (Base 65)
Averaged from 69 records on February 13, 2013
WEATHER CONDITIONS BREAKOUT
WIND DIRECTION BREAKOUT
WEATHER BY HOUR - FEBRUARY 13, 2013
[ °C ]   °F
Local TimeTemperatureDewpointHumidityBarometerVisibilityWind DirectionWind SpeedGust SpeedPrecipitationEventsConditions
12:35 AM28.4 °F28.4 °F100 %30.04 in2.5 miWNW (290°)6.9 mphThunderstormMostly Cloudy
1:15 AM28.4 °F28.4 °F100 %30.04 in0.2 miWest (280°)8.1 mphFogLight Freezing Fog
1:35 AM26.6 °F26.6 °F100 %30.03 in0.2 miWest (260°)5.8 mphFogLight Freezing Fog
1:55 AM26.6 °F26.6 °F100 %30.03 in0.2 miWest (260°)3.5 mphFogLight Freezing Fog
2:15 AM26.6 °F26.6 °F100 %30.03 in0.2 miWSW (250°)5.8 mphFogLight Freezing Fog
2:35 AM26.6 °F26.6 °F100 %30.02 in0.2 miWSW (240°)8.1 mphFogLight Freezing Fog
2:55 AM26.6 °F26.6 °F100 %30.02 in0.5 miWSW (240°)8.1 mphFogLight Freezing Fog
3:15 AM26.6 °F26.6 °F100 %30.01 in0.5 miSW (230°)9.2 mphFogLight Freezing Fog
3:35 AM26.6 °F26.6 °F100 %30.01 in3.0 miSW (230°)9.2 mphScattered Clouds
3:55 AM26.6 °F26.6 °F100 %30.00 in7.0 miSW (220°)8.1 mphClear
4:15 AM26.6 °F26.6 °F100 %29.99 in7.0 miSW (220°)10.4 mphClear
4:35 AM26.6 °F26.6 °F100 %29.99 in8.0 miSW (230°)9.2 mphClear
4:55 AM24.8 °F24.8 °F100 %29.98 in10.0 miSW (230°)10.4 mphClear
5:15 AM24.8 °F24.8 °F100 %29.98 in10.0 miWSW (240°)9.2 mphClear
5:35 AM24.8 °F24.8 °F100 %29.99 in10.0 miWSW (240°)10.4 mphClear
5:55 AM24.8 °F24.8 °F100 %29.99 in10.0 miWSW (250°)9.2 mphClear
6:15 AM24.8 °F24.8 °F100 %30.00 in10.0 miWSW (250°)6.9 mphClear
6:35 AM23.0 °F23.0 °F100 %30.01 in10.0 miWSW (250°)6.9 mphClear
6:55 AM23.0 °F23.0 °F100 %30.01 in10.0 miWest (260°)8.1 mphClear
7:15 AM23.0 °F23.0 °F100 %30.02 in9.0 miWSW (250°)9.2 mphClear
7:35 AM23.0 °F23.0 °F100 %30.02 in8.0 miWSW (250°)10.4 mphClear
7:55 AM23.0 °F23.0 °F100 %30.02 in8.0 miSW (230°)6.9 mphClear
8:15 AM24.8 °F24.8 °F100 %30.03 in8.0 miSW (230°)8.1 mphClear
8:35 AM24.8 °F24.8 °F100 %30.02 in8.0 miSW (230°)9.2 mphClear
8:55 AM26.6 °F26.6 °F100 %30.02 in7.0 miWSW (240°)9.2 mphClear
9:15 AM26.6 °F26.6 °F100 %30.03 in8.0 miSW (230°)8.1 mphClear
9:35 AM28.4 °F28.4 °F100 %30.03 in10.0 miSW (230°)8.1 mphClear
10:15 AM30.2 °F28.4 °F93 %30.03 in9.0 miWSW (240°)9.2 mph0.01 inClear
10:35 AM30.2 °F28.4 °F93 %30.03 in10.0 miWSW (240°)10.4 mph0.03 inClear
10:55 AM32.0 °F28.4 °F87 %30.03 in10.0 miWSW (240°)9.2 mph0.04 inClear
11:15 AM32.0 °F28.4 °F87 %30.03 in10.0 miWSW (240°)11.5 mph0.01 inClear
11:35 AM32.0 °F28.4 °F87 %30.03 in10.0 miSW (220°)8.1 mph0.02 inClear
11:55 AM32.0 °F28.4 °F87 %30.02 in10.0 miSW (220°)9.2 mph0.02 inClear
12:15 PM33.8 °F32.0 °F93 %30.02 in10.0 miSW (220°)9.2 mphClear
12:35 PM35.6 °F32.0 °F87 %30.02 in10.0 miSW (230°)9.2 mphClear
12:55 PM35.6 °F32.0 °F87 %30.00 in10.0 miSW (230°)9.2 mphClear
1:15 PM37.4 °F33.8 °F87 %29.99 in10.0 miSW (220°)9.2 mphRainLight Rain
1:35 PM39.2 °F32.0 °F75 %29.99 in10.0 miSW (230°)11.5 mphClear
1:55 PM41.0 °F32.0 °F70 %29.97 in10.0 miSW (220°)11.5 mphClear
2:15 PM42.8 °F33.8 °F70 %29.97 in10.0 miWest (260°)11.5 mphClear
2:35 PM44.6 °F33.8 °F66 %29.96 in10.0 miWSW (250°)12.7 mphClear
2:55 PM44.6 °F33.8 °F66 %29.96 in10.0 miWSW (250°)13.8 mphClear
3:15 PM46.4 °F33.8 °F62 %29.95 in10.0 miSW (230°)13.8 mphClear
3:35 PM46.4 °F35.6 °F66 %29.95 in10.0 miSW (230°)13.8 mphClear
3:55 PM48.2 °F35.6 °F62 %29.95 in10.0 miSW (230°)13.8 mphClear
4:15 PM48.2 °F35.6 °F62 %29.94 in10.0 miSW (230°)15.0 mphClear
4:35 PM48.2 °F33.8 °F58 %29.94 in10.0 miSW (230°)13.8 mphClear
4:55 PM48.2 °F32.0 °F54 %29.94 in10.0 miSW (230°)13.8 mphClear
5:15 PM48.2 °F32.0 °F54 %29.93 in10.0 miSW (230°)15.0 mphClear
5:35 PM48.2 °F33.8 °F58 %29.93 in10.0 miSW (220°)10.4 mphClear
5:55 PM46.4 °F32.0 °F57 %29.93 in10.0 miSW (230°)11.5 mphClear
6:15 PM44.6 °F32.0 °F61 %29.94 in10.0 miWSW (250°)9.2 mphClear
6:35 PM41.0 °F33.8 °F76 %29.94 in10.0 miWSW (240°)6.9 mphClear
6:55 PM39.2 °F32.0 °F75 %29.94 in10.0 miSW (220°)6.9 mphClear
7:15 PM37.4 °F32.0 °F81 %29.94 in10.0 miSSW (210°)9.2 mphClear
7:35 PM37.4 °F32.0 °F81 %29.94 in10.0 miSSW (210°)9.2 mphClear
7:55 PM35.6 °F32.0 °F87 %29.94 in10.0 miSSW (210°)9.2 mphClear
8:15 PM35.6 °F32.0 °F87 %29.95 in10.0 miSSW (210°)10.4 mphClear
8:35 PM35.6 °F32.0 °F87 %29.95 in10.0 miSSW (210°)10.4 mphClear
8:55 PM35.6 °F32.0 °F87 %29.95 in10.0 miSSW (210°)10.4 mphClear
9:15 PM35.6 °F32.0 °F87 %29.94 in10.0 miSW (220°)10.4 mphClear
9:35 PM35.6 °F32.0 °F87 %29.94 in10.0 miSSW (210°)11.5 mphClear
9:55 PM35.6 °F32.0 °F87 %29.94 in10.0 miSW (220°)10.4 mphClear
10:15 PM35.6 °F32.0 °F87 %29.94 in10.0 miSW (230°)11.5 mphClear
10:35 PM33.8 °F32.0 °F93 %29.95 in10.0 miSW (230°)10.4 mphClear
10:55 PM32.0 °F32.0 °F100 %29.95 in10.0 miWSW (240°)10.4 mphClear
11:15 PM32.0 °F32.0 °F100 %29.96 in10.0 miWSW (250°)9.2 mphClear
11:35 PM32.0 °F32.0 °F100 %29.95 in10.0 miWSW (250°)10.4 mphClear
11:55 PM32.0 °F32.0 °F100 %29.95 in10.0 miWSW (240°)9.2 mphClear
Hourly data recorded from KBKN, located miles away from Caldwell, Kansas







STORIES FROM OUR PARTNERS